Theta_e
342 332 339 335 318 316 310 310 312 308 306 307 308 308 310 314 310 307 328 328 328 328 329 330 330 331 331 332 330 330 329 331 329 331 332 332 331 331 331 331 329 329 328 327 328 330 331 331 330
332 330 335 328 311 304 308 312 308 309 308 311 310 310 309 310 320 320 323 327 328 328 329 329 332 332 331 331 333 331 330 331 330 331 330 331 328 329 329 328 329 328 327 326 327 329 329 329 328
329 330 323 316 310 304 307 312 311 307 310 307 306 310 309 310 320 321 326 328 328 328 328 329 334 331 331 328 330 329 328 329 328 328 327 328 328 327 328 328 327 328 326 325 326 326 327 327 327
326 328 324 310 305 311 312 313 309 307 309 308 307 304 311 319 319 324 327 327 327 327 327 331 333 331 331 329 329 329 328 329 328 328 326 325 327 326 327 327 326 325 325 324 323 324 323 324 325
331 324 309 307 307 312 314 312 309 307 307 306 307 304 307 318 324 326 327 326 325 324 326 331 333 331 330 330 328 328 327 327 326 325 323 324 324 324 323 322 323 323 322 321 321 321 321 321 322
317 320 304 302 306 311 312 311 308 307 306 306 305 305 309 322 323 325 326 326 326 323 324 330 331 330 329 329 328 328 327 326 323 322 321 322 321 322 319 318 318 318 319 318 318 317 318 319 320
313 311 304 306 306 309 311 311 308 308 306 306 308 303 310 318 323 325 326 326 324 323 322 327 329 329 329 329 328 326 327 325 323 321 319 316 317 316 316 317 317 315 315 316 316 316 317 319 317
321 315 306 307 306 306 310 309 309 308 307 308 310 305 306 316 324 324 324 324 323 322 320 324 327 328 328 328 328 327 325 325 323 322 319 314 314 316 316 313 317 315 315 314 315 316 317 318 314
322 308 303 306 308 310 309 307 308 309 308 308 310 310 313 320 324 322 321 321 321 321 322 324 324 326 327 327 326 326 325 323 322 321 320 319 318 316 313 313 314 317 317 317 316 315 315 313 310
315 307 305 312 313 311 311 309 309 307 307 308 308 311 316 321 321 318 318 317 319 320 321 324 324 324 325 323 325 324 323 323 322 321 319 318 316 316 313 312 316 315 313 313 313 312 310 310 313
314 307 310 312 314 313 311 308 310 308 307 312 311 311 315 318 319 318 317 317 318 321 322 323 324 325 323 322 323 322 322 321 320 319 318 317 315 315 315 313 313 315 310 313 313 313 313 310 311
308 312 313 313 313 311 309 310 309 310 313 314 315 315 315 316 317 318 317 317 318 320 321 323 325 324 323 322 321 321 320 320 318 317 317 316 315 314 315 313 314 314 314 313 314 313 312 311 311
304 306 307 311 310 311 310 310 311 310 314 314 311 313 314 315 317 319 319 318 319 319 321 322 324 323 323 322 322 321 320 320 318 317 317 316 315 315 316 315 313 313 314 313 313 313 312 311 311
305 305 305 305 306 308 306 309 305 311 313 313 310 311 313 315 316 317 318 318 318 319 320 322 323 324 323 322 322 321 321 321 321 319 318 316 316 316 315 314 314 313 313 313 312 311 311 311 311
305 301 304 305 304 303 304 302 303 310 311 309 310 312 313 314 316 316 318 318 318 319 320 321 322 323 323 322 322 323 322 321 321 320 319 317 317 315 314 314 313 314 314 312 312 312 312 312 312
301 301 298 301 302 302 302 298 306 309 307 306 307 309 311 313 315 317 318 318 319 319 319 321 321 322 323 322 322 323 323 322 322 321 320 318 318 317 315 314 313 314 314 313 312 312 312 312 312
300 298 298 299 303 302 302 300 306 305 305 305 307 308 308 311 314 316 317 318 318 318 318 319 321 321 321 322 322 322 322 322 322 321 321 320 318 317 316 314 314 314 313 313 313 311 312 311 312
296 296 298 297 300 300 299 300 304 306 304 305 307 308 307 308 311 315 317 318 318 318 318 319 319 320 321 322 321 321 321 321 322 321 321 319 318 317 316 315 314 314 313 313 312 311 313 311 311
298 297 297 300 301 297 299 299 302 305 305 305 306 307 308 308 311 313 316 317 317 317 317 317 318 319 320 320 318 318 317 319 320 320 320 319 318 316 315 315 314 314 313 313 313 312 311 312 313
298 297 297 299 298 297 299 297 301 302 303 305 306 307 308 309 310 311 313 315 316 316 316 317 316 318 319 319 318 318 318 319 319 320 319 319 317 316 314 314 314 314 313 313 313 312 312 312 312
298 296 296 294 298 299 296 299 300 300 300 301 303 306 307 309 309 310 310 313 315 315 316 316 317 317 317 318 318 317 317 317 316 317 317 317 317 316 315 315 315 315 314 314 314 313 312 311 313
294 297 295 295 295 292 297 292 299 300 304 306 307 306 305 307 308 311 311 311 314 315 317 317 317 317 317 318 316 315 314 313 316 317 318 318 317 316 316 315 315 315 315 313 314 313 312 311 311
296 297 296 296 294 293 293 292 298 301 301 303 305 306 307 306 306 308 310 311 313 315 316 317 318 317 318 317 317 317 315 317 319 318 318 318 317 317 316 315 315 314 314 314 313 312 311 312 312
297 296 295 296 294 290 291 292 296 298 299 301 303 305 306 307 307 306 309 311 312 315 316 317 316 316 317 317 317 317 317 318 317 317 316 317 316 316 315 315 315 315 314 313 313 313 313 313 312
297 295 291 289 291 290 292 292 296 300 300 301 301 304 306 307 307 307 306 307 309 312 314 315 316 315 316 316 316 317 318 321 319 318 317 316 315 315 315 314 313 314 314 314 314 314 314 313 313
295 294 290 284 287 289 292 290 296 300 301 301 304 305 306 307 308 308 306 307 309 310 312 313 313 314 315 316 316 318 319 319 320 319 318 317 316 316 316 315 315 314 314 315 315 315 315 314 313
293 292 294 290 289 288 293 294 299 301 301 301 303 304 305 306 307 308 308 306 308 309 310 311 312 313 315 315 317 317 317 317 318 319 319 319 318 316 317 316 315 314 314 315 315 315 315 314 314
295 297 292 293 285 284 290 290 295 299 301 304 303 303 304 306 307 307 309 309 308 309 310 311 311 312 314 315 315 316 316 317 317 318 317 317 318 317 315 315 314 314 314 315 316 316 316 314 314
293 293 293 293 291 288 287 293 300 302 302 301 302 304 305 306 307 308 308 309 309 310 310 310 310 310 311 313 314 315 315 316 316 316 317 316 317 316 315 314 314 313 314 315 315 316 315 313 313
295 295 295 291 289 291 290 291 299 301 301 303 303 305 306 307 307 308 308 309 310 310 310 309 310 310 311 312 313 313 315 315 315 315 316 316 315 316 314 314 313 313 313 315 315 314 313 313 312
Wind_Speed
8 5 2 4 6 5 2 3 1 2 3 2 2 4 3 4 5 5 5 6 11 14 12 14 11 11 8 10 10 9 10 9 8 11 10 11 11 12 13 13 13 14 14 13 11 15 16 16 16
6 4 3 2 6 6 4 4 3 2 4 6 4 3 5 3 3 7 11 7 14 13 11 11 14 12 10 10 10 11 7 10 10 11 10 10 10 11 11 11 12 13 13 13 12 14 14 16 14
4 4 4 3 4 7 1 2 4 5 8 4 3 3 2 3 3 7 6 13 14 12 10 12 14 14 10 7 10 9 8 9 8 9 8 10 9 10 10 12 11 12 13 13 11 12 13 13 15
3 4 3 7 6 2 1 4 6 8 5 3 2 3 3 2 3 6 12 15 13 12 12 13 13 12 12 10 8 10 8 9 9 9 9 8 8 9 10 11 11 11 11 11 11 11 11 11 12
1 3 6 7 7 2 2 2 8 7 4 4 5 3 1 5 4 9 14 14 13 12 11 13 13 12 9 12 7 7 9 9 8 7 7 6 7 8 9 8 9 9 9 9 9 10 10 10 11
4 3 6 10 7 4 2 6 7 5 4 5 5 2 3 7 9 11 14 13 12 12 11 9 12 12 11 10 8 9 8 7 7 7 6 6 5 7 7 7 7 7 8 7 7 7 7 8 9
5 5 7 4 7 5 4 7 8 7 5 5 1 2 5 10 9 11 14 13 12 12 10 9 11 11 11 10 10 7 7 9 8 7 6 5 5 4 4 6 7 6 6 6 5 5 6 7 7
3 4 6 6 7 6 6 8 2 7 4 3 3 2 3 11 13 13 13 13 12 11 11 10 8 10 11 11 9 9 8 7 7 7 6 5 5 4 3 1 2 5 4 3 3 3 3 5 5
2 5 6 6 7 2 5 8 4 0 5 5 7 2 5 14 15 14 14 13 12 10 11 10 9 9 8 7 9 8 8 8 7 7 7 7 4 4 3 4 1 2 2 3 3 4 4 2 1
5 5 4 2 3 3 3 8 5 6 8 8 8 6 8 16 17 17 17 16 15 15 13 10 10 9 9 6 7 7 6 6 6 6 7 4 4 2 3 1 2 1 2 1 1 1 2 6 2
2 7 3 5 6 4 3 6 5 8 8 9 11 13 14 17 17 17 17 17 17 15 12 12 11 10 10 8 6 4 4 4 4 6 5 4 3 3 2 1 2 1 2 2 2 2 1 4 3
7 5 6 2 2 3 5 1 7 13 13 1 7 7 17 18 18 18 18 17 17 17 15 14 13 11 11 7 7 7 5 5 5 5 6 4 3 3 2 2 1 2 1 2 2 2 3 3 3
7 4 3 4 6 7 3 10 11 11 15 7 3 10 17 16 17 16 16 15 16 17 17 16 14 12 11 11 7 7 6 6 5 5 6 5 4 3 2 2 2 2 2 2 2 2 3 4 4
2 7 9 6 8 7 8 13 4 13 11 15 13 14 16 18 19 15 16 17 18 17 18 17 16 14 12 10 10 7 7 6 6 6 6 7 4 4 3 3 2 3 2 2 3 3 4 4 5
4 9 10 11 7 6 4 15 17 20 12 17 16 17 16 17 16 18 19 19 18 16 17 17 17 16 14 13 10 8 7 7 7 6 7 7 6 6 5 4 3 3 2 4 4 4 4 4 4
5 4 5 5 3 2 6 15 12 8 12 16 16 15 16 18 18 18 17 17 17 16 18 17 14 16 16 13 10 8 8 7 7 6 6 8 8 7 6 5 4 3 3 3 4 3 4 4 4
4 5 5 5 3 2 9 15 8 2 9 11 13 14 16 16 18 16 16 16 16 17 17 18 17 17 17 15 10 10 10 8 7 7 7 8 9 8 7 5 5 5 4 4 4 4 4 5 5
2 6 4 7 1 7 14 23 22 18 14 17 14 12 14 17 19 18 17 17 16 16 16 17 15 17 16 11 11 8 8 8 8 8 8 9 8 9 7 6 6 5 4 5 4 5 3 5 5
5 7 10 11 4 6 14 21 24 18 17 18 18 16 16 16 15 17 18 18 17 16 17 17 17 17 13 11 11 10 10 9 8 9 11 11 9 9 9 7 7 6 6 6 5 4 5 4 3
5 9 11 9 2 7 15 25 23 12 13 17 17 17 19 17 18 16 18 19 20 19 19 18 18 17 15 11 10 9 9 9 9 9 10 12 11 11 10 9 8 8 6 7 6 6 3 3 2
7 9 11 10 12 7 14 9 6 4 2 2 9 13 14 16 17 17 19 20 19 21 21 19 19 18 17 16 10 8 5 4 7 8 8 10 13 12 12 12 10 9 7 6 7 6 6 4 2
9 1 4 8 10 7 8 6 7 10 10 14 12 7 7 13 14 14 17 19 22 20 18 19 19 19 17 19 14 15 12 11 9 9 8 9 13 13 13 13 12 10 7 8 7 7 6 6 5
2 1 4 4 8 9 3 5 5 7 13 20 17 14 9 5 8 14 16 17 18 17 18 18 19 19 18 18 17 13 15 11 9 7 9 10 9 13 13 13 12 11 9 9 9 8 9 7 5
1 5 4 2 3 5 4 4 9 10 14 15 17 19 15 9 6 7 13 14 15 16 16 17 19 19 19 18 20 19 17 14 11 10 9 8 8 8 12 13 12 11 10 10 9 9 10 9 8
5 7 4 4 3 3 2 5 8 8 10 11 14 16 18 18 15 10 7 13 14 17 17 16 18 20 20 20 19 20 19 16 16 14 11 11 9 9 11 13 12 10 10 10 9 9 9 10 8
1 4 4 4 3 4 3 3 6 3 3 6 11 14 14 18 19 16 8 9 12 14 16 18 19 19 20 20 20 18 18 12 12 15 12 11 11 10 12 12 11 12 11 11 10 8 8 9 9
5 5 3 2 0 5 1 3 2 6 7 1 10 17 19 20 20 18 13 4 9 11 14 16 17 18 20 21 17 18 17 18 15 17 14 11 12 10 12 12 12 12 12 12 11 9 10 10 10
4 4 3 3 3 4 3 4 6 9 4 6 17 21 19 20 22 18 15 9 5 9 11 14 15 17 18 18 17 17 19 19 17 15 17 15 13 13 12 13 12 12 12 12 12 10 11 11 9
5 4 2 3 3 3 4 1 4 6 2 11 16 18 19 20 21 19 15 14 8 6 9 12 14 16 16 17 17 17 17 18 17 16 16 16 14 14 14 14 13 13 14 13 13 13 12 13 12
2 3 6 4 4 1 4 7 5 3 3 12 19 21 21 20 19 18 16 15 12 8 8 11 13 15 16 16 16 18 17 17 17 18 17 16 17 16 15 15 15 15 15 14 15 14 13 14 14
Wind_Direction
302 312 284 235 243 247 224 140 14 153 169 91 113 248 318 349 339 27 134 122 149 148 149 156 157 152 131 123 122 123 111 97 96 83 70 72 65 66 63 55 67 60 58 66 56 55 54 55 57
315 288 235 253 254 241 133 134 193 74 97 125 143 189 223 96 80 105 143 149 155 147 154 151 161 144 138 137 123 117 119 100 86 77 81 70 80 77 72 62 54 70 62 62 62 54 53 63 57
283 306 253 250 252 254 301 156 114 111 139 173 176 269 328 81 120 144 98 153 154 152 151 141 172 145 150 125 129 129 113 107 103 96 89 82 70 73 59 66 60 52 63 63 62 58 54 50 59
292 201 179 241 228 179 308 116 135 143 172 212 262 198 166 53 126 162 145 154 157 154 158 148 147 163 168 147 150 140 118 103 92 80 82 74 68 69 65 60 64 57 53 59 60 60 58 55 57
257 238 225 229 225 213 205 122 168 169 146 163 197 110 150 146 123 136 152 160 161 161 160 163 149 153 162 150 148 123 141 121 100 98 101 78 79 74 69 61 56 57 57 56 53 55 54 53 51
205 273 225 220 204 199 199 166 174 200 159 137 201 209 104 123 157 153 158 166 164 162 167 157 163 160 162 158 160 149 134 119 125 121 109 93 89 73 62 56 58 52 54 53 54 54 47 45 40
259 235 241 246 219 216 184 163 205 190 176 189 98 231 99 169 159 163 166 167 167 167 174 170 168 166 166 171 158 167 155 147 142 133 125 118 120 101 73 55 49 58 57 61 57 52 41 39 34
253 253 212 221 204 216 155 179 244 204 172 98 224 209 134 164 157 161 166 168 172 171 178 178 178 174 169 167 174 167 169 160 161 154 147 149 140 111 85 175 51 72 73 60 48 34 23 42 23
255 236 228 215 214 169 146 202 157 72 174 199 183 274 90 142 154 163 171 177 180 183 186 182 183 180 175 178 160 182 181 178 175 178 173 176 189 163 194 69 301 339 29 26 20 17 14 5 140
250 250 227 265 245 270 184 226 189 203 198 211 199 153 138 156 169 176 183 185 188 188 190 189 189 185 183 184 180 192 172 194 189 193 184 189 175 103 323 300 253 300 320 284 326 332 267 242 335
175 266 245 236 248 265 271 220 213 223 218 228 219 185 171 177 186 192 195 195 192 191 189 195 190 193 189 192 189 188 194 192 198 203 206 197 217 205 218 234 196 232 184 240 235 230 334 345 344
259 249 249 288 217 217 236 191 219 224 242 309 240 181 175 187 195 200 201 198 192 192 192 193 194 193 196 195 198 192 193 192 195 198 200 210 211 217 234 257 279 260 312 315 309 319 329 300 287
247 288 253 262 267 250 244 240 255 237 243 220 188 179 189 199 204 206 206 202 197 196 194 197 192 197 197 199 197 198 199 197 197 192 196 214 211 224 222 235 249 260 273 268 287 296 296 292 297
336 286 279 268 259 251 250 260 242 244 252 234 214 204 204 205 205 199 203 203 203 200 196 195 195 198 198 203 199 201 204 200 199 201 201 206 217 225 220 232 244 246 246 272 288 305 305 298 295
283 287 282 246 249 235 251 255 239 256 236 244 226 230 220 213 205 206 203 205 202 202 198 198 196 195 203 205 204 205 204 208 207 208 204 209 216 227 226 240 235 246 246 264 265 275 283 278 288
253 252 286 117 193 151 220 265 274 259 225 238 238 229 220 219 212 212 205 206 203 201 200 195 194 200 201 207 204 208 207 210 216 213 213 214 220 223 229 238 239 237 247 263 273 287 290 283 296
206 288 270 296 183 255 228 290 281 214 219 238 232 232 224 222 216 217 211 207 204 204 199 199 195 200 203 207 210 212 217 214 218 220 219 218 221 223 228 233 237 230 241 245 260 269 278 304 309
297 280 260 277 148 240 270 267 272 260 240 255 245 232 222 222 222 212 210 207 206 203 205 202 199 203 202 203 209 214 218 219 224 223 225 221 220 221 227 233 237 232 238 244 238 260 270 293 309
294 274 277 286 318 279 271 277 279 275 253 245 243 237 221 220 222 213 205 204 205 203 205 205 200 202 198 201 203 210 214 216 221 221 225 223 221 218 221 230 230 221 235 240 245 260 269 272 277
263 286 292 295 244 283 299 290 292 299 260 242 244 236 231 230 226 213 206 202 204 203 203 204 204 201 200 201 204 207 213 223 220 218 219 220 218 217 219 223 227 225 225 226 228 224 246 256 263
256 275 307 302 318 258 309 273 355 49 348 268 253 255 254 233 222 209 203 203 202 207 203 203 202 201 200 201 199 206 209 222 213 216 218 216 218 216 217 222 225 224 224 231 222 220 225 254 242
278 42 276 301 321 323 5 310 47 20 64 38 28 26 268 243 240 232 207 205 205 208 204 203 200 201 200 198 200 204 209 214 215 216 212 214 214 216 217 221 221 226 217 224 222 214 221 223 236
354 285 284 287 289 307 127 263 54 27 11 5 6 5 2 356 260 234 226 214 212 203 204 204 203 202 199 200 203 206 217 218 216 211 212 212 209 217 214 216 217 219 220 223 218 207 208 215 232
92 257 240 241 239 234 41 314 72 21 354 26 44 42 40 19 341 267 239 216 210 203 204 201 202 203 200 201 203 208 213 215 211 210 212 214 209 205 213 212 216 215 217 219 216 218 215 215 218
233 279 275 220 205 21 59 285 33 44 62 51 39 40 41 31 20 352 249 217 212 200 200 202 205 204 200 201 207 209 213 214 213 212 211 210 209 209 208 203 206 208 210 215 214 212 214 215 217
168 293 308 297 330 332 122 239 106 169 129 59 46 40 27 20 16 15 347 242 221 212 206 201 201 208 204 203 209 211 212 215 215 216 215 216 216 212 205 203 208 211 208 210 209 211 214 213 217
129 213 14 278 101 261 331 177 161 218 225 205 32 15 15 11 6 6 10 297 228 218 217 215 212 211 207 206 206 210 210 215 216 217 215 214 218 214 206 205 205 211 210 207 205 212 209 209 213
292 115 199 187 269 271 197 258 146 208 224 343 6 4 1 359 357 355 353 356 259 235 220 217 222 221 217 211 210 211 210 214 218 216 215 213 215 212 205 205 206 208 209 205 206 212 212 207 210
159 206 207 303 272 290 306 160 159 184 8 352 352 359 356 350 349 350 347 347 328 265 226 225 221 221 223 216 216 217 215 213 214 217 216 214 214 211 211 208 207 209 212 209 209 214 208 210 211
289 277 244 256 166 278 314 271 158 194 38 339 345 346 348 347 346 353 351 347 344 321 264 234 218 221 221 221 219 220 221 216 215 217 216 213 213 211 211 209 212 211 214 211 211 212 209 209 211